EW9490 Weather Reports


time (UTC)temp
C
wind
direction
speed
KPH
gust
KPH
rain 1hr
cm
rain 24hr
cm
rain mn
cm
humidity
%
barometer
mb
20260508093017 2 255 0.0 0.0 0.00 0.00 0.00 95 1014.6
20260508091511 2 255 0.0 0.0 0.00 0.00 0.00 95 1014.4
20260508090007 2 255 0.0 0.0 0.00 0.00 0.00 95 1014.5
20260508084505 2 255 0.0 0.0 0.00 0.00 0.00 95 1014.5
20260508083007 2 255 0.0 0.0 0.00 0.00 0.00 95 1014.4
20260508081502 2 255 0.0 0.0 0.00 0.00 0.00 95 1014.3
20260508080057 2 255 0.0 0.0 0.00 0.00 0.00 94 1014.4
20260508074555 3 255 0.0 0.0 0.00 0.00 0.00 94 1014.2
20260508073108 3 255 0.0 0.0 0.00 0.00 0.00 94 1014.2
20260508071549 3 255 0.0 0.0 0.00 0.00 0.00 94 1014.2
20260508070048 3 255 0.0 0.0 0.00 0.00 0.00 94 1014.3
20260508064549 3 255 0.0 0.0 0.00 0.00 0.00 94 1014.4
20260508063050 3 255 0.0 0.0 0.00 0.00 0.00 93 1014.7
20260508061546 3 255 0.0 0.0 0.00 0.00 0.00 93 1014.7
20260508060013 3 255 0.0 0.0 0.00 0.00 0.00 92 1014.5
20260508054512 3 255 0.0 0.0 0.00 0.00 0.00 92 1014.6
20260508053008 4 255 0.0 0.0 0.00 0.00 0.00 92 1014.5
20260508051506 4 255 0.0 0.0 0.00 0.00 0.00 91 1014.7
20260508050004 4 255 0.0 0.0 0.00 0.00 0.00 91 1014.7
20260508044505 5 255 0.0 0.0 0.00 0.00 0.00 89 1014.6
20260508043000 5 255 0.0 0.0 0.00 0.00 0.00 89 1014.6
20260508041600 5 255 0.0 0.0 0.00 0.00 0.00 88 1014.5
20260508040105 5 255 0.0 0.0 0.00 0.00 0.00 86 1014.5
20260508034559 5 255 0.0 0.0 0.00 0.00 0.00 84 1014.3
20260508033028 6 255 0.0 0.0 0.00 0.00 0.00 83 1014.2
20260508031534 6 255 0.0 0.0 0.00 0.00 0.00 80 1014.2
20260508030025 7 255 0.0 0.0 0.00 0.00 0.00 77 1014.3
20260508024547 7 255 0.0 0.0 0.00 0.00 0.00 74 1014.2
20260508023024 7 255 0.0 0.0 0.00 0.00 0.00 70 1014.2
20260508021524 8 255 0.0 0.0 0.00 0.00 0.00 66 1014.0
20260508020057 9 255 0.0 0.0 0.00 0.00 0.00 63 1013.7
20260508014555 10 255 0.0 0.0 0.00 0.00 0.00 59 1013.6
20260508013051 10 255 0.0 0.0 0.00 0.00 0.00 57 1013.5
20260508011556 11 255 0.0 0.0 0.00 0.00 0.00 54 1013.4
20260508010054 12 255 0.0 0.0 0.00 0.00 0.00 50 1013.2
20260508004555 12 255 0.0 4.8 0.00 0.00 0.00 46 1013.1
20260508003045 13 255 0.0 6.4 0.00 0.00 0.00 44 1013.0
20260508001548 13 295 0.0 14.5 0.00 0.00 0.00 42 1012.9
20260508000046 15 265 1.6 12.9 0.00 0.00 0.00 40 1012.5
20260507234544 15 263 4.8 20.9 0.00 0.00 0.00 39 1012.4
20260507233041 15 294 4.8 19.3 0.00 0.00 0.00 37 1012.4
20260507231543 16 253 8.0 17.7 0.00 0.00 0.00 35 1012.3
20260507230052 16 293 8.0 17.7 0.00 0.00 0.00 34 1012.3
20260507224540 16 255 4.8 25.7 0.00 0.00 0.00 33 1011.8
20260507223036 16 279 4.8 19.3 0.00 0.00 0.00 33 1011.9
20260507221541 17 263 6.4 19.3 0.00 0.00 0.00 32 1011.6
20260507220034 17 257 8.0 16.1 0.00 0.00 0.00 34 1011.5
20260507214536 17 283 4.8 25.7 0.00 0.00 0.00 32 1011.5
20260507213101 17 299 9.7 25.7 0.00 0.00 0.00 32 1011.3
20260507211605 17 255 9.7 30.6 0.00 0.00 0.00 32 1011.1
20260507210109 17 289 4.8 19.3 0.00 0.00 0.00 32 1011.1
20260507204555 17 262 6.4 20.9 0.00 0.00 0.00 33 1011.0
20260507203117 17 312 6.4 17.7 0.00 0.00 0.00 37 1010.7
20260507201555 17 278 12.9 25.7 0.00 0.00 0.00 36 1010.9
20260507200052 17 246 8.0 24.1 0.00 0.00 0.00 33 1010.9
20260507194558 17 243 4.8 17.7 0.00 0.00 0.00 38 1011.1
20260507193046 16 274 9.7 20.9 0.00 0.00 0.00 36 1011.3
20260507193044 16 277 9.7 20.9 0.00 0.00 0.00 36 1011.3
20260507191546 16 286 9.7 24.1 0.00 0.00 0.00 37 1011.5
20260507190047 16 272 8.0 29.0 0.00 0.00 0.00 38 1011.7
20260507184539 16 270 6.4 20.9 0.00 0.00 0.00 37 1011.8
20260507183039 16 288 4.8 29.0 0.00 0.00 0.00 39 1011.7
20260507181537 16 282 6.4 19.3 0.00 0.00 0.00 40 1011.7
20260507180039 16 253 3.2 11.3 0.00 0.00 0.00 43 1011.8
20260507174540 16 277 8.0 17.7 0.00 0.00 0.00 41 1011.9
20260507173052 16 303 8.0 16.1 0.00 0.00 0.00 39 1012.2
20260507171529 16 227 6.4 14.5 0.00 0.00 0.00 43 1012.3
20260507170030 16 211 6.4 14.5 0.00 0.00 0.00 42 1012.5
20260507164554 16 261 3.2 9.7 0.00 0.00 0.00 42 1012.5
20260507163052 15 279 4.8 14.5 0.00 0.00 0.00 46 1012.9
20260507161551 14 270 1.6 12.9 0.00 0.00 0.00 46 1012.9
20260507160051 15 234 3.2 12.9 0.00 0.00 0.00 46 1013.0
20260507154546 15 265 4.8 16.1 0.00 0.00 0.00 46 1013.0
20260507153044 14 277 4.8 14.5 0.00 0.00 0.00 46 1013.1
20260507151540 14 218 1.6 12.9 0.00 0.00 0.00 50 1013.0
20260507150043 14 225 6.4 16.1 0.00 0.00 0.00 50 1013.1
20260507144538 14 319 8.0 14.5 0.00 0.00 0.00 52 1013.3
20260507143050 13 287 4.8 12.9 0.00 0.00 0.00 54 1013.5
20260507141545 13 206 1.6 6.4 0.00 0.05 0.00 54 1013.8
20260507140027 13 233 3.2 9.7 0.00 0.05 0.00 57 1013.8
20260507134522 12 260 3.2 11.3 0.00 0.05 0.00 59 1013.7
20260507133021 12 212 1.6 8.0 0.00 0.05 0.00 60 1013.9
20260507131549 12 238 0.0 1.6 0.00 0.08 0.00 63 1014.0
20260507130058 12 225 0.0 3.2 0.00 0.08 0.00 71 1014.1
20260507124542 11 252 0.0 3.2 0.00 0.08 0.00 74 1014.2
20260507123040 10 252 0.0 3.2 0.00 0.08 0.00 81 1014.1
20260507121534 10 220 0.0 1.6 0.00 0.10 0.00 83 1014.0
20260507120035 8 220 0.0 1.6 0.00 0.10 0.00 87 1014.1
20260507114526 8 253 0.0 1.6 0.00 0.10 0.00 89 1014.1
20260507113023 7 253 0.0 0.0 0.00 0.10 0.00 95 1013.7
20260507111520 6 253 0.0 0.0 0.00 0.18 0.00 96 1013.6
20260507110020 4 253 0.0 0.0 0.00 0.18 0.00 94 1013.5
20260507104515 5 253 0.0 0.0 0.00 0.18 0.00 94 1013.5
20260507103014 5 253 0.0 0.0 0.00 0.18 0.00 94 1013.2
20260507101513 5 254 0.0 0.0 0.00 0.36 0.00 93 1013.1
20260507100015 5 254 0.0 0.0 0.00 0.36 0.00 93 1013.1
20260507094547 5 254 0.0 0.0 0.00 0.36 0.00 91 1012.9
20260507093034 6 254 0.0 0.0 0.00 0.36 0.00 91 1013.1